FW6809 Weather Reports


time (UTC)temp
C
wind
direction
speed
KPH
gust
KPH
rain 1hr
cm
rain 24hr
cm
rain mn
cm
humidity
%
barometer
mb
20260504081550 4 0 0.0 0.0 0.00 0.00 0.00 98 1018.9
20260504044600 5 0 0.0 0.0 0.00 0.00 0.00 96 1019.9
20260504043058 6 0 0.0 0.0 0.00 0.00 0.00 96 1019.7
20260504041551 6 0 0.0 0.0 0.00 0.00 0.00 95 1019.6
20260504040053 6 0 0.0 0.0 0.00 0.00 0.00 95 1019.8
20260504034551 6 0 0.0 0.0 0.00 0.00 0.00 95 1019.6
20260504033049 6 0 0.0 0.0 0.00 0.00 0.00 94 1019.7
20260504031553 6 0 0.0 0.0 0.00 0.00 0.00 94 1019.6
20260504030052 6 0 0.0 0.0 0.00 0.00 0.00 93 1019.9
20260504024549 7 0 0.0 0.0 0.00 0.00 0.00 93 1019.7
20260504023057 7 0 0.0 0.0 0.00 0.00 0.00 92 1019.7
20260504021555 7 0 0.0 0.0 0.00 0.00 0.00 92 1019.6
20260504020126 8 0 0.0 0.0 0.00 0.00 0.00 91 1019.3
20260504014601 8 0 0.0 0.0 0.00 0.00 0.00 90 1019.3
20260504013116 9 0 0.0 0.0 0.00 0.00 0.00 89 1019.1
20260504011553 10 0 0.0 0.0 0.00 0.00 0.00 87 1018.9
20260504010054 10 0 0.0 0.0 0.00 0.00 0.00 86 1018.7
20260504004623 11 0 0.0 0.0 0.00 0.00 0.00 84 1018.6
20260504003059 11 0 0.0 0.0 0.00 0.00 0.00 82 1018.6
20260504001622 12 0 0.0 0.0 0.00 0.00 0.00 76 1018.6
20260504000110 13 0 0.0 0.0 0.00 0.00 0.00 71 1018.5
20260503234604 14 0 0.0 0.0 0.00 0.00 0.00 67 1018.4
20260503233052 15 0 0.0 0.0 0.00 0.00 0.00 60 1018.6
20260503231550 16 0 0.0 0.0 0.00 0.00 0.00 56 1018.5
20260503230112 16 0 0.0 0.0 0.00 0.00 0.00 53 1018.6
20260503224549 16 0 0.0 1.6 0.00 0.00 0.00 51 1018.6
20260503223051 17 0 0.0 0.0 0.00 0.00 0.00 51 1018.8
20260503221603 17 0 0.0 3.2 0.00 0.00 0.00 49 1018.8
20260503220055 17 0 0.0 3.2 0.00 0.00 0.00 48 1019.0
20260503214558 17 0 0.0 8.0 0.00 0.00 0.00 47 1018.9
20260503213056 17 0 0.0 3.2 0.00 0.00 0.00 47 1018.9
20260503211551 17 0 0.0 6.4 0.00 0.00 0.00 47 1019.1
20260503210053 17 149 0.0 11.3 0.00 0.00 0.00 47 1019.2
20260503204551 17 195 0.0 3.2 0.00 0.00 0.00 46 1019.4
20260503203108 17 0 0.0 4.8 0.00 0.00 0.00 41 1019.5
20260503201555 17 0 0.0 3.2 0.00 0.00 0.00 42 1019.9
20260503200049 17 0 0.0 3.2 0.00 0.00 0.00 46 1020.1
20260503194551 17 299 0.0 6.4 0.00 0.00 0.00 46 1020.4
20260503193047 18 0 0.0 1.6 0.00 0.00 0.00 46 1020.7
20260503191553 18 101 0.0 3.2 0.00 0.00 0.00 47 1020.6
20260503190057 18 102 0.0 3.2 0.00 0.00 0.00 47 1020.9
20260503184552 18 0 0.0 6.4 0.00 0.00 0.00 50 1021.1
20260503183050 18 0 0.0 3.2 0.00 0.00 0.00 51 1021.1
20260503181558 18 280 0.0 4.8 0.00 0.00 0.00 49 1021.1
20260503180055 17 197 1.6 6.4 0.00 0.00 0.00 51 1021.3
20260503174548 17 134 0.0 8.0 0.00 0.00 0.00 50 1021.3
20260503173052 17 0 0.0 8.0 0.00 0.00 0.00 54 1021.5
20260503171549 17 0 0.0 3.2 0.00 0.00 0.00 52 1021.8
20260503100106 1 0 0.0 0.0 0.00 0.00 0.00 98 1020.5